[[{"header":{"parameterUnit":"m.s-1","parameterCategory":2,"la1":30.2991,"la2":30.254,"lo1":-89.0895,"lo2":-89.0444,"dy":0.0017,"dx":0.0017,"nx":28,"ny":28,"refTime":"2024-07-13T03:00:00:Z","depth":"0","parameterNumber":2,"parameterNumberName":"U-component_of_CURRENTS"},"data":[0,0,0,0,0,0,0,0,0,0,0,0,0,0,0,0,0,0,0,0,0,0,0,0,0,0,0,0,0,0,0,0,0,0,0,0,0,0,0,0,0,0,0,0,0,0,0,0,0,0,0,0,0,0,0,0,0,0,0.342,0.342,0,0.3414,0.3414,0.3414,0.3363,0.3362,0.336,0.3359,0.3369,0.337,0.3372,0,0,0,0,0,0,0,0,0,0,0,0,0,0.337,0.3371,0.342,0.342,0.342,0.3414,0.3414,0.3414,0.3363,0.3361,0.336,0.3359,0.3369,0.337,0.3372,0,0,0,0,0,0,0,0,0,0,0,0,0,0.338,0.3372,0.342,0.3395,0.3393,0.3414,0.3414,0.3414,0.3363,0.3361,0.336,0.3358,0.3368,0.337,0.3372,0.3418,0,0,0.3378,0.3379,0,0,0,0,0,0,0,0,0.3379,0.3381,0.3399,0.3397,0.3395,0.3389,0.34,0.3416,0.3364,0.3373,0.3359,0.3357,0.3379,0.338,0.3381,0.3419,0.3419,0.3378,0.3379,0.338,0.3381,0,0,0,0,0,0,0,0.3379,0.3381,0.3416,0.3399,0.3397,0.3378,0.3378,0.3402,0.3385,0.3372,0.3369,0.3371,0.3378,0.3379,0.3381,0.3419,0.3378,0.338,0.3381,0.3382,0.353,0.3533,0,0,0,0,0,0,0.3385,0.3381,0.3417,0.3416,0.3384,0.3381,0.338,0.3391,0.3384,0.3382,0.3372,0.3368,0.3376,0.3378,0.3381,0.3412,0.338,0.3382,0.3383,0.3528,0.3531,0.3534,0,0,0,0,0,0,0.3384,0.3389,0.3417,0.3399,0.3401,0.3384,0.3396,0.3392,0.3391,0.3384,0.3382,0.3375,0.3375,0.3378,0.3409,0.3413,0.3383,0.3385,0.3524,0.3529,0.3532,0.3491,0,0,0,0,0,0,0.3383,0.3389,0.3404,0.34,0.3402,0.3425,0.3398,0.3393,0.3395,0.339,0.3387,0.3385,0.3374,0.3406,0.3411,0.3415,0.3386,0.3521,0.3526,0.3531,0.3489,0.3493,0.3496,0,0,0,0,0,0.3382,0.3405,0.3405,0.3409,0.3422,0.3426,0.3426,0.3406,0.3397,0.3399,0.3405,0.3385,0.3443,0.3409,0.3414,0.3419,0.3518,0.3525,0.3531,0.3487,0.3492,0.3496,0,0,0,0,0,0,0.3388,0.3403,0.3401,0.3428,0.3426,0.3418,0.3421,0.3416,0.3423,0.342,0.3413,0.3413,0.3449,0.346,0.3424,0.3488,0.3482,0.3489,0.3447,0.3452,0.3456,0.3432,0.3388,0,0,0,0,0,0.3401,0.3419,0.3425,0.3442,0.3445,0.3438,0.3441,0.343,0.3434,0.3433,0.3432,0.3452,0.3484,0.3484,0.3516,0.3542,0.3562,0.3559,0.3563,0.3565,0.3557,0.3616,0.3622,0.3554,0.3554,0.3554,0,0,0.3404,0.3417,0.3424,0.3445,0.3441,0.3436,0.3434,0.3438,0.343,0.3438,0.3435,0.347,0.3502,0.3529,0.3546,0.3528,0.3598,0.3573,0.3574,0.3564,0.3623,0.3629,0.3634,0.3558,0.3558,0.3557,0,0,0.3402,0.3434,0.3436,0.344,0.3445,0.3445,0.345,0.3448,0.3445,0.3462,0.3475,0.351,0.3543,0.3557,0.3572,0.3629,0.363,0.3652,0.3625,0.3683,0.3687,0.3691,0.3716,0.3723,0.3636,0.3636,0.3636,0,0.3398,0.3407,0.3436,0.3433,0.3428,0.3448,0.3433,0.3444,0.3451,0.3453,0.3458,0.3526,0.3552,0.3582,0.3601,0.3629,0.3658,0.3588,0.3681,0.3686,0.3691,0.3716,0.3724,0.3634,0.3635,0.3635,0.3635,0,0.3384,0.3392,0.3395,0.3395,0.3401,0.3397,0.3412,0.3422,0.3432,0.3436,0.3477,0.3523,0.3555,0.3583,0.3602,0.3656,0.3664,0.3686,0.365,0.3694,0.3719,0.3728,0.3633,0.3633,0.3634,0.3634,0,0,0.3351,0.3377,0.3372,0.3356,0.3378,0.3369,0.3384,0.3388,0.3382,0.342,0.3417,0.3493,0.3523,0.3548,0.3589,0.3632,0.3695,0.3668,0.3672,0.3658,0.3805,0.3768,0.3774,0.3733,0.3735,0.3736,0.3802,0,0.3314,0.3299,0.3327,0.3294,0.3278,0.3311,0.3313,0.3328,0.3352,0.3364,0.3428,0.346,0.3509,0.3531,0.3586,0.3681,0.3719,0.3673,0.3795,0.3797,0.3731,0.3784,0.3723,0.3774,0.3811,0.3812,0.3813,0,0.3266,0.3266,0.3236,0.3228,0.3223,0.3216,0.3216,0.3225,0.3271,0.3294,0.3344,0.3399,0.3479,0.3519,0.3669,0.3641,0.372,0.3783,0.3787,0.377,0.3778,0.3744,0.3788,0.3607,0.3827,0.3826,0.3825,0,0.3189,0.3186,0.3158,0.3155,0.3164,0.3157,0.3166,0.3198,0.32,0.3259,0.3271,0.3371,0.3421,0.3549,0.3686,0.3691,0.384,0.3862,0.3892,0.389,0.3869,0.3861,0.3721,0.3961,0.3961,0.3961,0.3961,0,0.3123,0.3091,0.312,0.3098,0.3061,0.3093,0.3068,0.3094,0.3133,0.3134,0.3234,0.326,0.3437,0.354,0.3672,0.3803,0.3835,0.3892,0.3912,0.3854,0.3844,0.3711,0.365,0.3963,0.3963,0.3962,0.3962,0,0.3028,0.3051,0.3011,0.3021,0.3021,0.2994,0.3007,0.2996,0.3047,0.3058,0.308,0.3191,0.3335,0.3491,0.3688,0.3768,0.381,0.3942,0.3841,0.3848,0.3699,0.3641,0.349,0.3451,0.3987,0.3987,0.3987,0,0.2972,0.2945,0.2945,0.2927,0.2929,0.2911,0.2902,0.2947,0.295,0.3014,0.3018,0.3141,0.3235,0.3484,0.3675,0.3875,0.3768,0.3887,0.3888,0.3671,0.3623,0.3489,0.3458,0.3846,0.3845,0.3844,0.3843,0,0.286,0.2869,0.2853,0.2826,0.2808,0.2789,0.2791,0.278,0.2838,0.2865,0.2914,0.2993,0.3235,0.34,0.3638,0.3778,0.3693,0.3866,0.3685,0.353,0.3335,0.3313,0.3792,0.3832,0.3833,0.3834,0.3835,0.3835,0.2773,0.2748,0.274,0.2704,0.2687,0.2662,0.2623,0.2649,0.2649,0.2671,0.28,0.2892,0.313,0.3477,0.3584,0.3634,0.363,0.3564,0.3523,0.3412,0.3324,0.3751,0.3785,0.3786,0.3787,0.3787,0.3788,0,0.2646,0.2644,0.2615,0.2572,0.2521,0.2553,0.2535,0.25,0.248,0.256,0.2621,0.2824,0.2998,0.3201,0.3356,0.3274,0.3259,0.3168,0.2957,0.2964,0.3386,0.3326,0.3207,0.3207,0.3207,0.3208,0.3208,0.3208,0.2579,0.2526,0.2525,0.2416,0.2389,0.2308,0.2286,0.2264,0.2302,0.2332,0.2407,0.253,0.27,0.282,0.2814,0.284,0.266,0.257,0.2543,0.28,0.2832,0.2862,0.2785,0.2555,0.2554,0.2075,0.207,0.2067]},{"header":{"parameterUnit":"m.s-1","parameterCategory":2,"la1":30.2991,"la2":30.254,"lo1":-89.0895,"lo2":-89.0444,"dy":0.0017,"dx":0.0017,"nx":28,"ny":28,"refTime":"2024-07-13T03:00:00:Z","depth":"0","parameterNumber":3,"parameterNumberName":"V-component_of_CURRENTS"},"data":[0,0,0,0,0,0,0,0,0,0,0,0,0,0,0,0,0,0,0,0,0,0,0,0,0,0,0,0,0,0,0,0,0,0,0,0,0,0,0,0,0,0,0,0,0,0,0,0,0,0,0,0,0,0,0,0,0,0,0.0594,0.0595,0,0.0635,0.0636,0.0636,0.0616,0.0615,0.0614,0.0612,0.0619,0.0621,0.0622,0,0,0,0,0,0,0,0,0,0,0,0,0,0.051,0.0511,0.0594,0.0595,0.0595,0.0635,0.0636,0.0636,0.0616,0.0615,0.0613,0.0612,0.0619,0.0621,0.0622,0,0,0,0,0,0,0,0,0,0,0,0,0,0.0549,0.0512,0.0594,0.0589,0.0588,0.0635,0.0636,0.0636,0.0617,0.0615,0.0613,0.0611,0.0619,0.062,0.0622,0.067,0,0,0.0628,0.0629,0,0,0,0,0,0,0,0,0.0547,0.0553,0.0589,0.0589,0.0589,0.0617,0.0608,0.0646,0.0617,0.0607,0.0612,0.061,0.0616,0.0618,0.0632,0.0671,0.0671,0.0628,0.063,0.063,0.0631,0,0,0,0,0,0,0,0.0544,0.0551,0.0612,0.059,0.059,0.0588,0.0591,0.0616,0.0622,0.0608,0.0606,0.0609,0.0616,0.0631,0.0632,0.0671,0.0628,0.063,0.0631,0.0632,0.0737,0.0739,0,0,0,0,0,0,0.0538,0.0549,0.0611,0.0613,0.0561,0.059,0.0595,0.0611,0.0622,0.0622,0.0611,0.0608,0.0628,0.063,0.0632,0.0688,0.063,0.0632,0.0633,0.0735,0.0737,0.0739,0,0,0,0,0,0,0.0537,0.0544,0.0609,0.0579,0.0587,0.0594,0.0612,0.0613,0.0625,0.0624,0.0623,0.0621,0.0627,0.0629,0.0663,0.0688,0.0633,0.0635,0.0734,0.0736,0.0738,0.08,0,0,0,0,0,0,0.0534,0.0544,0.0556,0.058,0.0588,0.0639,0.0614,0.0615,0.0629,0.0626,0.0634,0.0632,0.0626,0.066,0.0665,0.0689,0.0636,0.0732,0.0735,0.0738,0.0796,0.0805,0.0812,0,0,0,0,0,0.0531,0.0557,0.0557,0.0564,0.0605,0.064,0.0646,0.0644,0.0631,0.0647,0.0654,0.0632,0.0681,0.0664,0.0668,0.0694,0.073,0.0734,0.0737,0.0793,0.0803,0.0812,0,0,0,0,0,0,0.0523,0.0558,0.0558,0.0592,0.0614,0.0636,0.065,0.0652,0.0673,0.0667,0.0662,0.0663,0.0701,0.0694,0.0674,0.0733,0.0699,0.0704,0.074,0.0749,0.0757,0.0747,0.0638,0,0,0,0,0,0.053,0.0559,0.0585,0.0612,0.0624,0.064,0.0653,0.0656,0.0675,0.0682,0.0691,0.0701,0.0724,0.0732,0.0751,0.0789,0.076,0.0807,0.0814,0.0821,0.0817,0.0802,0.0808,0.0751,0.0751,0.0751,0,0,0.0533,0.0556,0.0571,0.0612,0.0628,0.0662,0.0644,0.0671,0.07,0.0681,0.0725,0.0734,0.0742,0.0784,0.0799,0.0778,0.0824,0.0826,0.0831,0.0823,0.0807,0.0812,0.0816,0.0754,0.0753,0.0753,0,0,0.0556,0.0576,0.0608,0.0632,0.0662,0.0678,0.0688,0.0719,0.0731,0.0779,0.0771,0.0795,0.0833,0.0842,0.0851,0.0915,0.0869,0.0921,0.0948,0.0935,0.0939,0.0942,0.0913,0.0913,0.0919,0.0919,0.0919,0,0.0557,0.0601,0.0621,0.0657,0.0678,0.0688,0.0724,0.0751,0.0789,0.0804,0.0796,0.0853,0.0861,0.0903,0.0924,0.0932,0.0907,0.0911,0.0943,0.0946,0.0948,0.0917,0.0917,0.0923,0.0922,0.0922,0.0922,0,0.0604,0.0639,0.066,0.0711,0.074,0.0771,0.0805,0.0836,0.085,0.087,0.0915,0.0931,0.0953,0.0969,0.0969,0.0996,0.0968,0.0957,0.0915,0.0957,0.0923,0.0921,0.0928,0.0926,0.0925,0.0925,0,0,0.0604,0.0678,0.0684,0.0711,0.0768,0.0794,0.0849,0.0896,0.0923,0.0957,0.099,0.1036,0.1026,0.1036,0.1036,0.1031,0.1032,0.1001,0.0999,0.0964,0.0987,0.0946,0.0939,0.1021,0.1021,0.1021,0.0957,0,0.0631,0.0698,0.0735,0.0797,0.0831,0.0863,0.0912,0.0954,0.0984,0.1022,0.1034,0.1068,0.1057,0.1066,0.1063,0.1051,0.1029,0.1049,0.0959,0.0956,0.0907,0.0937,0.0938,0.088,0.0955,0.0955,0.0954,0,0.066,0.0702,0.0764,0.0833,0.0851,0.089,0.0951,0.0998,0.105,0.1072,0.1096,0.1103,0.1123,0.1097,0.1072,0.1083,0.1034,0.101,0.1007,0.0942,0.0911,0.0851,0.0872,0.0804,0.095,0.0951,0.0951,0,0.0639,0.0721,0.0766,0.0791,0.0873,0.0902,0.0944,0.1004,0.1045,0.1094,0.1121,0.1136,0.1144,0.1105,0.1071,0.1064,0.1026,0.1006,0.0915,0.091,0.088,0.0873,0.0815,0.0958,0.0958,0.0958,0.0958,0,0.0652,0.0687,0.0756,0.0781,0.0833,0.089,0.0946,0.0992,0.1055,0.1105,0.1133,0.1166,0.1144,0.1129,0.1078,0.1,0.1025,0.0918,0.0894,0.0902,0.0898,0.081,0.0763,0.0956,0.0956,0.0957,0.0957,0,0.0625,0.0672,0.0724,0.0802,0.0825,0.0858,0.0945,0.099,0.1048,0.1112,0.1129,0.1182,0.117,0.1136,0.1076,0.1003,0.0871,0.0892,0.0898,0.0876,0.0712,0.0668,0.0496,0.0452,0.0771,0.0769,0.0768,0,0.0622,0.0645,0.0721,0.0753,0.0788,0.0845,0.0893,0.0972,0.1025,0.1123,0.1155,0.1173,0.1203,0.1112,0.1005,0.0899,0.0817,0.079,0.0775,0.0701,0.0635,0.0556,0.0527,0.0758,0.0757,0.0756,0.0756,0,0.0615,0.0635,0.068,0.0737,0.0787,0.0853,0.0926,0.0967,0.1066,0.1124,0.12,0.1234,0.1167,0.1098,0.0957,0.0864,0.0711,0.0764,0.0696,0.0623,0.0525,0.0474,0.0792,0.0748,0.0748,0.0749,0.0749,0.075,0.0604,0.0625,0.0681,0.0734,0.0793,0.087,0.0923,0.1005,0.1091,0.1214,0.1235,0.1326,0.1219,0.1044,0.0894,0.064,0.0613,0.0566,0.0518,0.0444,0.04,0.0687,0.0613,0.0613,0.0613,0.0613,0.0613,0,0.0597,0.063,0.0681,0.0755,0.0817,0.0855,0.0958,0.1021,0.1117,0.1253,0.1334,0.1382,0.1212,0.102,0.0687,0.0467,0.0364,0.0355,0.0272,0.0256,0.0531,0.0534,0.0429,0.0429,0.0429,0.0429,0.0429,0.0429,0.0597,0.0638,0.0668,0.0764,0.0818,0.0908,0.0968,0.1064,0.1177,0.1342,0.1457,0.1559,0.144,0.0823,0.0405,0.0298,0.013,0.0051,-0.001,0.0223,0.0241,0.0257,0.0251,0.0088,0.0088,-0.0263,-0.0266,-0.0269]}],[{"header":{"parameterUnit":"m.s-1","parameterCategory":2,"la1":30.2991,"la2":30.254,"lo1":-89.0895,"lo2":-89.0444,"dy":0.0017,"dx":0.0017,"nx":28,"ny":28,"refTime":"2024-07-13T03:00:00:Z","depth":"2","parameterNumber":2,"parameterNumberName":"U-component_of_CURRENTS"},"data":[0,0,0,0,0,0,0,0,0,0,0,0,0,0,0,0,0,0,0,0,0,0,0,0,0,0,0,0,0,0,0,0,0,0,0,0,0,0,0,0,0,0,0,0,0,0,0,0,0,0,0,0,0,0,0,0,0,0,0.0643,0.0644,0,0.0655,0.0655,0.0656,0.072,0.0722,0.0723,0.0725,0.0852,0.0854,0.0856,0,0,0,0,0,0,0,0,0,0,0,0,0,0.0666,0.0666,0.0643,0.0644,0.0644,0.0655,0.0655,0.0656,0.072,0.0722,0.0724,0.0725,0.0851,0.0854,0.0856,0,0,0,0,0,0,0,0,0,0,0,0,0,0.0665,0.0665,0.0643,0.0677,0.068,0.0655,0.0655,0.0656,0.0719,0.0722,0.0724,0.0726,0.0851,0.0853,0.0856,0.0828,0,0,0.0865,0.0867,0,0,0,0,0,0,0,0,0.0665,0.0664,0.0672,0.0675,0.0678,0.0688,0.071,0.0719,0.0719,0.0705,0.0725,0.0727,0.0806,0.0813,0.0809,0.0834,0.084,0.0866,0.0867,0.0869,0.0869,0,0,0,0,0,0,0,0.0665,0.0664,0.0648,0.0672,0.0676,0.0688,0.0691,0.0712,0.0745,0.0706,0.0711,0.0711,0.0809,0.0805,0.0812,0.0842,0.0866,0.0868,0.087,0.0871,0.0949,0.0949,0,0,0,0,0,0,0.0661,0.0664,0.0648,0.0649,0.0677,0.0686,0.0689,0.0683,0.0742,0.0752,0.0709,0.0714,0.0799,0.0809,0.0817,0.092,0.0869,0.0871,0.0873,0.0949,0.0949,0.0949,0,0,0,0,0,0,0.0661,0.0659,0.0647,0.0657,0.0657,0.0683,0.0676,0.0682,0.073,0.0743,0.0756,0.0757,0.0801,0.0813,0.0889,0.0921,0.0873,0.0875,0.0948,0.0949,0.0949,0.104,0,0,0,0,0,0,0.0662,0.0659,0.0673,0.0656,0.0656,0.0675,0.0674,0.068,0.0723,0.0731,0.0788,0.0799,0.0804,0.0884,0.0892,0.0924,0.0878,0.0948,0.0948,0.0949,0.1037,0.1044,0.105,0,0,0,0,0,0.0662,0.0671,0.0673,0.0672,0.0667,0.0676,0.0679,0.0704,0.0724,0.0755,0.0797,0.08,0.0892,0.0888,0.0896,0.093,0.0948,0.0948,0.0949,0.1034,0.1043,0.105,0,0,0,0,0,0,0.0696,0.0677,0.068,0.0685,0.0699,0.0689,0.0715,0.0729,0.0781,0.0804,0.0822,0.0836,0.0899,0.0899,0.0894,0.0946,0.0912,0.0914,0.0973,0.0982,0.0988,0.0998,0.088,0,0,0,0,0,0.0702,0.0703,0.0696,0.0706,0.0715,0.0723,0.0737,0.0755,0.0783,0.081,0.0852,0.088,0.0893,0.0933,0.0941,0.0994,0.0972,0.101,0.1017,0.1023,0.1033,0.1008,0.1014,0.0951,0.0951,0.0951,0,0,0.0714,0.0708,0.0708,0.0714,0.0724,0.0741,0.074,0.0775,0.0804,0.0815,0.0896,0.0909,0.0907,0.0955,0.0983,0.0977,0.1031,0.1024,0.1029,0.1036,0.1009,0.1016,0.1021,0.0952,0.0952,0.0952,0,0,0.073,0.0739,0.0744,0.0759,0.0782,0.0785,0.0808,0.0833,0.0869,0.0932,0.0931,0.0973,0.1023,0.1022,0.1023,0.1069,0.1053,0.1073,0.1141,0.1118,0.1123,0.1128,0.1125,0.1128,0.1093,0.1094,0.1094,0,0.0753,0.0751,0.0754,0.0769,0.0787,0.0813,0.0836,0.0864,0.092,0.0954,0.0978,0.1032,0.1042,0.107,0.1093,0.1086,0.1081,0.112,0.1129,0.1132,0.1135,0.1131,0.1133,0.1098,0.1097,0.1097,0.1097,0,0.076,0.0779,0.0791,0.0811,0.0836,0.0866,0.0894,0.095,0.1001,0.1026,0.1095,0.1111,0.1147,0.1147,0.1148,0.1174,0.1167,0.1129,0.1116,0.1147,0.114,0.1141,0.1104,0.1103,0.1101,0.11,0,0,0.0761,0.0787,0.08,0.0816,0.0864,0.0881,0.0945,0.0998,0.1043,0.1116,0.1172,0.1207,0.1236,0.1237,0.1236,0.1236,0.1261,0.1218,0.1215,0.1229,0.1239,0.1275,0.1279,0.1236,0.1236,0.1237,0.1233,0,0.0774,0.0799,0.0818,0.0865,0.0881,0.0932,0.0981,0.104,0.1101,0.1168,0.1202,0.1253,0.1261,0.1294,0.1298,0.1264,0.1266,0.1267,0.1195,0.1193,0.123,0.1281,0.1094,0.1079,0.1234,0.1234,0.1234,0,0.0773,0.0791,0.083,0.0881,0.0897,0.094,0.1027,0.1076,0.1164,0.1215,0.1288,0.1319,0.1368,0.1344,0.1338,0.1349,0.1311,0.1277,0.1275,0.1277,0.123,0.1066,0.1075,0.1235,0.1235,0.1235,0.1235,0,0.0751,0.0803,0.0835,0.0853,0.0915,0.0964,0.1017,0.1105,0.1154,0.1259,0.1313,0.1367,0.1411,0.1379,0.1378,0.1357,0.1349,0.1289,0.1279,0.1281,0.1091,0.1076,0.1254,0.1254,0.1254,0.1254,0.1254,0,0.0741,0.0769,0.0834,0.085,0.0904,0.0963,0.1038,0.1102,0.1194,0.126,0.1346,0.1408,0.1424,0.1443,0.1398,0.1383,0.1368,0.131,0.1288,0.1121,0.111,0.1209,0.1204,0.1254,0.1254,0.1254,0.1254,0,0.0703,0.0745,0.0779,0.0858,0.089,0.0936,0.1042,0.1091,0.1195,0.1284,0.133,0.1447,0.1513,0.1519,0.1478,0.1422,0.1378,0.1359,0.1194,0.1155,0.1312,0.1311,0.1336,0.1337,0.1339,0.1339,0.134,0,0.0678,0.0693,0.0774,0.0801,0.0845,0.0922,0.0973,0.1083,0.1143,0.1307,0.1346,0.1473,0.1544,0.155,0.1456,0.1395,0.1445,0.1216,0.1135,0.1348,0.1323,0.132,0.1318,0.0907,0.0905,0.0902,0.0901,0,0.063,0.067,0.0699,0.0755,0.0815,0.0872,0.0967,0.1006,0.1148,0.1231,0.1361,0.1435,0.148,0.1384,0.1355,0.1274,0.122,0.1173,0.1404,0.0949,0.0953,0.0926,0.0935,0.088,0.0882,0.0884,0.0885,0.0886,0.0595,0.0607,0.0655,0.0707,0.0763,0.0824,0.0871,0.0964,0.105,0.1153,0.1251,0.1288,0.1204,0.1085,0.1074,0.1081,0.1115,0.102,0.1021,0.1027,0.1012,0.102,0.0958,0.096,0.0962,0.0964,0.0965,0,0.0552,0.0577,0.0606,0.0666,0.0702,0.0771,0.0862,0.0875,0.096,0.1017,0.1086,0.0871,0.0816,0.0867,0.081,0.0791,0.0718,0.0814,0.069,0.0706,0.0722,0.069,0.0552,0.0552,0.0552,0.0552,0,0,0.0529,0.054,0.0559,0.0597,0.0652,0.0716,0.077,0.0776,0.0795,0.0765,0.0759,0.0667,0.0716,0.055,0.0533,0.0597,0.0655,0.0569,0.0871,0.0734,0.0751,0.0784,0.0746,0,0,0,0,0]},{"header":{"parameterUnit":"m.s-1","parameterCategory":2,"la1":30.2991,"la2":30.254,"lo1":-89.0895,"lo2":-89.0444,"dy":0.0017,"dx":0.0017,"nx":28,"ny":28,"refTime":"2024-07-13T03:00:00:Z","depth":"2","parameterNumber":3,"parameterNumberName":"V-component_of_CURRENTS"},"data":[0,0,0,0,0,0,0,0,0,0,0,0,0,0,0,0,0,0,0,0,0,0,0,0,0,0,0,0,0,0,0,0,0,0,0,0,0,0,0,0,0,0,0,0,0,0,0,0,0,0,0,0,0,0,0,0,0,0,-0.0232,-0.0233,0,-0.0295,-0.0295,-0.0296,-0.0355,-0.0356,-0.0357,-0.0358,-0.0433,-0.0434,-0.0435,0,0,0,0,0,0,0,0,0,0,0,0,0,-0.0198,-0.0198,-0.0232,-0.0233,-0.0234,-0.0295,-0.0295,-0.0296,-0.0355,-0.0356,-0.0357,-0.0358,-0.0432,-0.0434,-0.0435,0,0,0,0,0,0,0,0,0,0,0,0,0,-0.0229,-0.0198,-0.0232,-0.0273,-0.0278,-0.0295,-0.0295,-0.0296,-0.0354,-0.0356,-0.0357,-0.0359,-0.0432,-0.0434,-0.0435,-0.0414,0,0,-0.044,-0.0441,0,0,0,0,0,0,0,0,-0.0227,-0.023,-0.0266,-0.0271,-0.0276,-0.0322,-0.0311,-0.0337,-0.0354,-0.0322,-0.0358,-0.036,-0.0398,-0.0402,-0.0406,-0.0417,-0.042,-0.044,-0.0441,-0.0442,-0.0442,0,0,0,0,0,0,0,-0.0225,-0.0227,-0.0254,-0.0267,-0.0273,-0.0301,-0.0306,-0.0316,-0.0348,-0.0325,-0.033,-0.0342,-0.04,-0.0404,-0.0408,-0.0422,-0.044,-0.0441,-0.0442,-0.0443,-0.0519,-0.052,0,0,0,0,0,0,-0.022,-0.0225,-0.0252,-0.0256,-0.0258,-0.03,-0.0306,-0.0303,-0.0348,-0.0357,-0.034,-0.0344,-0.0401,-0.0406,-0.0411,-0.0431,-0.0442,-0.0443,-0.0444,-0.0518,-0.052,-0.0521,0,0,0,0,0,0,-0.0218,-0.0221,-0.025,-0.0246,-0.0252,-0.0299,-0.0295,-0.0303,-0.0327,-0.036,-0.0369,-0.0359,-0.0402,-0.0409,-0.0443,-0.0433,-0.0444,-0.0445,-0.0517,-0.0519,-0.052,-0.0443,0,0,0,0,0,0,-0.0217,-0.0219,-0.0222,-0.0245,-0.0252,-0.026,-0.0294,-0.0303,-0.0332,-0.0338,-0.0378,-0.0386,-0.0404,-0.044,-0.0444,-0.0435,-0.0446,-0.0516,-0.0518,-0.052,-0.0444,-0.0442,-0.044,0,0,0,0,0,-0.0215,-0.0203,-0.0221,-0.0225,-0.0251,-0.0259,-0.0265,-0.0303,-0.0332,-0.0332,-0.0375,-0.0386,-0.0457,-0.0442,-0.0446,-0.0437,-0.0515,-0.0517,-0.0519,-0.0445,-0.0442,-0.044,0,0,0,0,0,0,-0.0191,-0.0209,-0.0229,-0.0225,-0.0245,-0.0271,-0.0277,-0.0307,-0.0339,-0.035,-0.0389,-0.0399,-0.0431,-0.0452,-0.0435,-0.0473,-0.0491,-0.0495,-0.0433,-0.0431,-0.0429,-0.0396,-0.0448,0,0,0,0,0,-0.0186,-0.018,-0.0207,-0.0205,-0.0212,-0.0248,-0.0262,-0.0284,-0.0314,-0.0331,-0.0364,-0.0405,-0.0439,-0.045,-0.0483,-0.0488,-0.0507,-0.0494,-0.0492,-0.0489,-0.0471,-0.0519,-0.0518,-0.0529,-0.0529,-0.0529,0,0,-0.0177,-0.0187,-0.0186,-0.02,-0.0217,-0.021,-0.0259,-0.0271,-0.0272,-0.0332,-0.0349,-0.0399,-0.0445,-0.0462,-0.0477,-0.0477,-0.0494,-0.0492,-0.0489,-0.0472,-0.0521,-0.052,-0.0518,-0.0531,-0.053,-0.053,0,0,-0.0142,-0.0163,-0.0144,-0.0153,-0.0176,-0.0192,-0.0198,-0.0229,-0.0252,-0.0273,-0.0328,-0.0376,-0.0413,-0.0446,-0.0467,-0.0474,-0.049,-0.049,-0.0434,-0.0481,-0.0479,-0.0478,-0.0478,-0.0478,-0.0478,-0.0477,-0.0477,0,-0.0137,-0.0111,-0.0141,-0.0124,-0.0126,-0.018,-0.0158,-0.0181,-0.0224,-0.0238,-0.0271,-0.0358,-0.0402,-0.0427,-0.0433,-0.0464,-0.0478,-0.0431,-0.0473,-0.0473,-0.0473,-0.0474,-0.0474,-0.0474,-0.0474,-0.0475,-0.0475,0,-0.0082,-0.0069,-0.0057,-0.0049,-0.0055,-0.0045,-0.0077,-0.0093,-0.0134,-0.0165,-0.0214,-0.0285,-0.0332,-0.0363,-0.0394,-0.0418,-0.0423,-0.047,-0.0467,-0.0467,-0.0468,-0.047,-0.0469,-0.047,-0.0471,-0.0472,0,0,-0.0053,-0.0023,-0.0022,-0.0001,-0.0013,-0.0007,-0.0007,-0.0021,-0.0023,-0.0087,-0.0098,-0.0179,-0.023,-0.0259,-0.0318,-0.0358,-0.0373,-0.0399,-0.0403,-0.0373,-0.0437,-0.038,-0.0377,-0.0425,-0.0426,-0.0426,-0.0427,0,-0.0004,0.0054,0.0051,0.01,0.0128,0.0092,0.0102,0.0077,0.0037,0.0012,-0.0078,-0.0115,-0.0185,-0.0208,-0.0261,-0.0362,-0.0378,-0.0366,-0.0464,-0.0465,-0.0395,-0.0378,-0.0359,-0.0354,-0.0429,-0.0429,-0.043,0,0.0049,0.0084,0.0143,0.0185,0.0192,0.0209,0.0212,0.0215,0.0164,0.013,0.0072,0.0002,-0.0069,-0.0135,-0.0265,-0.0253,-0.0322,-0.0394,-0.0397,-0.0369,-0.0412,-0.0376,-0.0355,-0.0433,-0.0433,-0.0432,-0.0432,0,0.0091,0.0147,0.0199,0.0211,0.0245,0.0261,0.0273,0.0246,0.0253,0.0205,0.0196,0.0094,0.0044,-0.0074,-0.0219,-0.0241,-0.0355,-0.0412,-0.0412,-0.0408,-0.0422,-0.0418,-0.0475,-0.0475,-0.0475,-0.0475,-0.0475,0,0.015,0.0191,0.0224,0.0253,0.0313,0.0316,0.0359,0.0351,0.034,0.0352,0.0263,0.0246,0.0054,-0.0039,-0.0174,-0.0284,-0.0319,-0.0379,-0.0405,-0.0393,-0.0386,-0.0491,-0.0493,-0.0475,-0.0475,-0.0475,-0.0475,0,0.0193,0.0214,0.0276,0.032,0.0336,0.0376,0.0424,0.0455,0.0439,0.0451,0.0444,0.0356,0.0242,0.0075,-0.0114,-0.0206,-0.0335,-0.0359,-0.03,-0.0318,-0.036,-0.0359,-0.035,-0.0348,-0.0347,-0.0345,-0.0344,0,0.023,0.0263,0.0316,0.0353,0.0377,0.0434,0.0476,0.0494,0.0527,0.0516,0.053,0.0448,0.0399,0.018,0.0007,-0.0162,-0.0268,-0.0263,-0.0304,-0.0321,-0.0348,-0.0349,-0.035,-0.0292,-0.029,-0.0289,-0.0288,0,0.0296,0.0297,0.0343,0.041,0.0464,0.0534,0.0595,0.0634,0.0652,0.0668,0.0677,0.0648,0.0488,0.0304,0.0096,-0.0018,-0.0237,-0.0238,-0.0299,-0.0313,-0.0263,-0.029,-0.0294,-0.0277,-0.0278,-0.0279,-0.028,-0.028,0.0332,0.0368,0.0412,0.0476,0.0541,0.0624,0.069,0.0757,0.0823,0.086,0.0807,0.0726,0.0446,0.0192,0.0055,-0.006,-0.0072,-0.0207,-0.0213,-0.022,-0.02,-0.0148,-0.0134,-0.0135,-0.0135,-0.0135,-0.0135,0,0.0386,0.0415,0.048,0.0564,0.0644,0.0658,0.0765,0.0834,0.0927,0.0902,0.0923,0.0582,0.0424,0.0165,0.0046,-0.0053,-0.0066,-0.0132,-0.018,-0.0189,-0.0198,-0.0179,-0.0108,-0.0108,-0.0108,-0.0108,0,0,0.0421,0.0479,0.0508,0.0637,0.0691,0.0803,0.0864,0.096,0.0962,0.0912,0.0796,0.0684,0.0338,0.016,0.0022,-0.0018,-0.0064,-0.0013,-0.0022,-0.0067,-0.0074,-0.0225,-0.0204,0,0,0,0,0]}],[{"header":{"parameterUnit":"m.s-1","parameterCategory":2,"la1":30.2991,"la2":30.254,"lo1":-89.0895,"lo2":-89.0444,"dy":0.0017,"dx":0.0017,"nx":28,"ny":28,"refTime":"2024-07-13T03:00:00:Z","depth":"4","parameterNumber":2,"parameterNumberName":"U-component_of_CURRENTS"},"data":[0,0,0,0,0,0,0,0,0,0,0,0,0,0,0,0,0,0,0,0,0,0,0,0,0,0,0,0,0,0,0,0,0,0,0,0,0,0,0,0,0,0,0,0,0,0,0,0,0,0,0,0,0,0,0,0,0,0,-0.0206,-0.0206,0,-0.0227,-0.0227,-0.0228,-0.0254,-0.0255,-0.0255,-0.0256,-0.0387,-0.039,-0.0393,0,0,0,0,0,0,0,0,0,0,0,0,0,-0.0182,-0.0183,-0.0206,-0.0206,-0.0207,-0.0227,-0.0227,-0.0228,-0.0254,-0.0255,-0.0255,-0.0256,-0.0386,-0.039,-0.0394,0,0,0,0,0,0,0,0,0,0,0,0,0,-0.0197,-0.0183,-0.0206,-0.0223,-0.0224,-0.0227,-0.0227,-0.0228,-0.0254,-0.0255,-0.0256,-0.0256,-0.0385,-0.039,-0.0394,-0.0409,0,0,-0.0408,-0.041,0,0,0,0,0,0,0,0,-0.0196,-0.0198,-0.022,-0.0222,-0.0224,-0.0239,-0.0267,-0.0294,-0.0254,-0.0243,-0.0256,-0.0257,-0.0348,-0.0355,-0.0356,-0.0415,-0.0421,-0.0409,-0.0411,-0.0413,-0.0415,0,0,0,0,0,0,0,-0.0195,-0.0197,-0.0214,-0.022,-0.0222,-0.0227,-0.023,-0.0272,-0.0293,-0.0244,-0.0246,-0.0248,-0.035,-0.0351,-0.036,-0.0423,-0.0409,-0.0413,-0.0415,-0.0417,-0.0583,-0.0584,0,0,0,0,0,0,-0.0193,-0.0196,-0.0214,-0.0215,-0.0211,-0.0227,-0.023,-0.0233,-0.029,-0.0299,-0.0248,-0.0249,-0.0343,-0.0354,-0.0364,-0.0457,-0.0413,-0.0418,-0.042,-0.0581,-0.0583,-0.0585,0,0,0,0,0,0,-0.0192,-0.0194,-0.0213,-0.0206,-0.0209,-0.0227,-0.023,-0.0233,-0.0262,-0.0292,-0.0303,-0.0276,-0.0344,-0.0358,-0.0424,-0.046,-0.042,-0.0424,-0.0579,-0.0582,-0.0584,-0.0597,0,0,0,0,0,0,-0.0191,-0.0194,-0.0202,-0.0206,-0.0209,-0.0229,-0.0229,-0.0233,-0.0261,-0.0264,-0.032,-0.0331,-0.0346,-0.0417,-0.0428,-0.0465,-0.0428,-0.0577,-0.058,-0.0583,-0.0594,-0.0599,-0.0603,0,0,0,0,0,-0.019,-0.0199,-0.0202,-0.0205,-0.0218,-0.023,-0.0232,-0.0247,-0.0262,-0.0276,-0.0317,-0.033,-0.0445,-0.0422,-0.0435,-0.0474,-0.0576,-0.0579,-0.0583,-0.0592,-0.0598,-0.0603,0,0,0,0,0,0,-0.0197,-0.0203,-0.0207,-0.0218,-0.023,-0.0235,-0.0252,-0.0263,-0.0303,-0.0322,-0.0349,-0.0363,-0.0435,-0.0455,-0.0429,-0.0532,-0.0514,-0.052,-0.0516,-0.0522,-0.0527,-0.0499,-0.0431,0,0,0,0,0,-0.0201,-0.0211,-0.0215,-0.0229,-0.0238,-0.0251,-0.0262,-0.0275,-0.0304,-0.0323,-0.0363,-0.0412,-0.0455,-0.0489,-0.053,-0.0587,-0.0571,-0.0622,-0.0627,-0.0631,-0.0618,-0.062,-0.0623,-0.0597,-0.0597,-0.0597,0,0,-0.0209,-0.0213,-0.0221,-0.0232,-0.0245,-0.0256,-0.0261,-0.029,-0.0309,-0.0334,-0.0394,-0.0434,-0.0475,-0.0534,-0.0569,-0.0559,-0.0632,-0.0635,-0.0638,-0.0623,-0.0624,-0.0626,-0.0628,-0.0599,-0.0599,-0.0598,0,0,-0.022,-0.0236,-0.0244,-0.0254,-0.0276,-0.0283,-0.0298,-0.0324,-0.0351,-0.0403,-0.0429,-0.0487,-0.0558,-0.0587,-0.061,-0.0669,-0.0656,-0.0694,-0.0698,-0.0701,-0.0702,-0.0703,-0.0683,-0.0682,-0.0697,-0.0697,-0.0697,0,-0.0229,-0.0236,-0.025,-0.0259,-0.0271,-0.0298,-0.031,-0.0337,-0.0385,-0.0411,-0.0431,-0.0534,-0.0578,-0.0632,-0.0652,-0.0679,-0.0664,-0.067,-0.0703,-0.0704,-0.0704,-0.0684,-0.0683,-0.0698,-0.0698,-0.0697,-0.0697,0,-0.0238,-0.0249,-0.0261,-0.0276,-0.0293,-0.0314,-0.0343,-0.0382,-0.0424,-0.0447,-0.0525,-0.0578,-0.0629,-0.0665,-0.0677,-0.0715,-0.0697,-0.0705,-0.0679,-0.0707,-0.0685,-0.0683,-0.0699,-0.0699,-0.0698,-0.0698,0,0,-0.0238,-0.0259,-0.0265,-0.027,-0.0305,-0.0317,-0.0364,-0.04,-0.043,-0.0496,-0.053,-0.062,-0.0645,-0.0672,-0.0706,-0.0717,-0.0719,-0.0711,-0.071,-0.0673,-0.0701,-0.0605,-0.0594,-0.0726,-0.0726,-0.0726,-0.0681,0,-0.0239,-0.0248,-0.0265,-0.0286,-0.0293,-0.0332,-0.0366,-0.0411,-0.0458,-0.0501,-0.0564,-0.0614,-0.0648,-0.0676,-0.0695,-0.0714,-0.0715,-0.0728,-0.0694,-0.0693,-0.059,-0.0589,-0.0726,-0.068,-0.0679,-0.0679,-0.0679,0,-0.0239,-0.0243,-0.026,-0.0283,-0.0293,-0.0319,-0.0374,-0.0408,-0.0471,-0.0506,-0.056,-0.0595,-0.0639,-0.0658,-0.0686,-0.0689,-0.069,-0.0699,-0.0698,-0.0598,-0.0593,-0.065,-0.0675,-0.0675,-0.0676,-0.0676,-0.0676,0,-0.0222,-0.0239,-0.0252,-0.0261,-0.0296,-0.0328,-0.0359,-0.0422,-0.045,-0.0507,-0.0524,-0.0579,-0.0604,-0.0622,-0.0644,-0.066,-0.0649,-0.0675,-0.0588,-0.0581,-0.0674,-0.0674,-0.0676,-0.0676,-0.0676,-0.0676,-0.0676,0,-0.0209,-0.022,-0.025,-0.0258,-0.0281,-0.0321,-0.0363,-0.04,-0.0451,-0.0465,-0.0526,-0.0524,-0.0594,-0.0597,-0.0619,-0.0581,-0.0627,-0.057,-0.0559,-0.0683,-0.0684,-0.0672,-0.0672,-0.0674,-0.0675,-0.0675,-0.0675,0,-0.0194,-0.0211,-0.0224,-0.0263,-0.0276,-0.0302,-0.0352,-0.0369,-0.0427,-0.0442,-0.0453,-0.0482,-0.0463,-0.051,-0.0525,-0.0531,-0.052,-0.0496,-0.0599,-0.0598,-0.0457,-0.0459,-0.0388,-0.0384,-0.0381,-0.0379,-0.0376,0,-0.0185,-0.0192,-0.0223,-0.0226,-0.025,-0.0286,-0.0301,-0.0357,-0.0358,-0.0395,-0.0375,-0.0375,-0.0385,-0.0329,-0.0381,-0.0389,-0.0398,-0.0401,-0.0452,-0.0428,-0.0426,-0.0433,-0.0439,-0.0371,-0.037,-0.0369,-0.0369,0,-0.0169,-0.0192,-0.0201,-0.0205,-0.0221,-0.0216,-0.0236,-0.023,-0.0275,-0.0324,-0.0279,-0.0278,-0.0241,-0.0245,-0.0251,-0.0267,-0.0409,-0.0368,-0.0376,-0.0423,-0.0407,-0.0409,-0.0419,-0.0357,-0.0359,-0.036,-0.0361,0,-0.0165,-0.0164,-0.0179,-0.0182,-0.0176,-0.0141,-0.0161,-0.0143,-0.0154,-0.0197,-0.0163,-0.0176,-0.0201,-0.0176,-0.0178,-0.0182,-0.0193,-0.0225,-0.0241,-0.0254,-0.0234,-0.0195,-0.0052,0,0,0,0,0,-0.0154,-0.0148,-0.0145,-0.0133,-0.0116,-0.0112,-0.0103,-0.012,-0.0154,-0.0102,-0.014,-0.01,-0.0092,-0.0089,-0.0066,-0.0118,-0.0198,-0.0093,-0.0244,-0.0295,-0.0308,-0.03,0,0,0,0,0,0,-0.0144,-0.0146,-0.0139,-0.0087,-0.0063,-0.0035,-0.0024,-0.0045,-0.0011,-0.0054,-0.0031,-0.0088,-0.0063,-0.0098,-0.0062,-0.0067,-0.0158,-0.0109,-0.0109,-0.0287,-0.0299,-0.031,-0.0306,0,0,0,0,0]},{"header":{"parameterUnit":"m.s-1","parameterCategory":2,"la1":30.2991,"la2":30.254,"lo1":-89.0895,"lo2":-89.0444,"dy":0.0017,"dx":0.0017,"nx":28,"ny":28,"refTime":"2024-07-13T03:00:00:Z","depth":"4","parameterNumber":3,"parameterNumberName":"V-component_of_CURRENTS"},"data":[0,0,0,0,0,0,0,0,0,0,0,0,0,0,0,0,0,0,0,0,0,0,0,0,0,0,0,0,0,0,0,0,0,0,0,0,0,0,0,0,0,0,0,0,0,0,0,0,0,0,0,0,0,0,0,0,0,0,0.0183,0.0183,0,0.0181,0.0181,0.0181,0.0229,0.023,0.0232,0.0233,0.0261,0.0261,0.026,0,0,0,0,0,0,0,0,0,0,0,0,0,0.0199,0.0199,0.0183,0.0183,0.0183,0.0181,0.0181,0.0181,0.0229,0.023,0.0232,0.0233,0.0262,0.0261,0.026,0,0,0,0,0,0,0,0,0,0,0,0,0,0.0193,0.0199,0.0183,0.0207,0.021,0.0181,0.0181,0.0181,0.0228,0.023,0.0232,0.0234,0.0262,0.0261,0.026,0.0215,0,0,0.0258,0.0258,0,0,0,0,0,0,0,0,0.0194,0.0193,0.0204,0.0206,0.0208,0.0208,0.0197,0.0194,0.0228,0.022,0.0233,0.0235,0.0245,0.0246,0.024,0.0216,0.0217,0.0258,0.0257,0.0257,0.0257,0,0,0,0,0,0,0,0.0194,0.0193,0.0182,0.0204,0.0206,0.0208,0.021,0.0196,0.0221,0.0221,0.0225,0.0225,0.0247,0.024,0.0241,0.0218,0.0258,0.0257,0.0257,0.0256,0.0203,0.0202,0,0,0,0,0,0,0.0195,0.0193,0.0182,0.0182,0.0207,0.0206,0.0208,0.0205,0.0221,0.0225,0.0223,0.0227,0.024,0.0242,0.0242,0.0231,0.0257,0.0256,0.0256,0.0204,0.0202,0.0201,0,0,0,0,0,0,0.0195,0.0194,0.0182,0.0188,0.0187,0.0204,0.02,0.0204,0.0221,0.0222,0.0228,0.0239,0.0242,0.0243,0.0235,0.0231,0.0256,0.0255,0.0205,0.0203,0.0202,0.0182,0,0,0,0,0,0,0.0195,0.0194,0.0194,0.0188,0.0187,0.0166,0.0199,0.0203,0.0217,0.0223,0.0237,0.0241,0.0244,0.0236,0.0234,0.023,0.0255,0.0206,0.0204,0.0202,0.0183,0.018,0.0176,0,0,0,0,0,0.0196,0.0184,0.0194,0.0193,0.0186,0.0165,0.0164,0.0183,0.0216,0.0209,0.0222,0.0241,0.0224,0.0234,0.0233,0.0228,0.0207,0.0205,0.0202,0.0185,0.018,0.0176,0,0,0,0,0,0,0.0186,0.0188,0.0199,0.0188,0.018,0.0174,0.0174,0.0189,0.0193,0.0211,0.0223,0.0225,0.0218,0.0219,0.023,0.0206,0.022,0.0218,0.0208,0.0203,0.02,0.0197,0.0254,0,0,0,0,0,0.0184,0.0181,0.0176,0.0167,0.0167,0.0175,0.0174,0.0185,0.0186,0.0193,0.0199,0.0206,0.02,0.0201,0.0192,0.0174,0.0183,0.0171,0.0167,0.0164,0.016,0.0169,0.0167,0.0194,0.0194,0.0194,0,0,0.0176,0.0178,0.0175,0.0166,0.0168,0.0144,0.018,0.0178,0.0157,0.0192,0.0175,0.0192,0.0191,0.0173,0.0171,0.0179,0.016,0.0162,0.0159,0.0156,0.0167,0.0164,0.0162,0.0193,0.0193,0.0193,0,0,0.015,0.0163,0.0151,0.0141,0.0142,0.0136,0.0139,0.0138,0.0143,0.0122,0.0148,0.0157,0.0143,0.0141,0.0139,0.0106,0.014,0.0117,0.0098,0.0107,0.0106,0.0104,0.011,0.0109,0.0116,0.0116,0.0116,0,0.0143,0.0126,0.0141,0.0121,0.0108,0.0132,0.0104,0.0095,0.009,0.0087,0.0113,0.0111,0.012,0.01,0.0101,0.0098,0.0117,0.0118,0.0104,0.0103,0.0102,0.0108,0.0107,0.0115,0.0115,0.0115,0.0115,0,0.0102,0.009,0.0081,0.0062,0.0045,0.0028,0.0016,0.0008,0.0026,0.0023,0.0021,0.0038,0.0045,0.005,0.007,0.0068,0.0088,0.01,0.012,0.0098,0.0105,0.0105,0.0113,0.0114,0.0114,0.0114,0,0,0.0081,0.0058,0.0056,0.004,0.0018,-0.0003,-0.004,-0.0068,-0.0078,-0.0069,-0.0079,-0.007,-0.0022,-0.0021,0.0014,0.0028,0.0043,0.0073,0.0074,0.0085,0.0075,0.0021,0.0016,0.0071,0.0071,0.0071,0.0082,0,0.0047,0.0005,-0.0005,-0.0058,-0.008,-0.0084,-0.0125,-0.0144,-0.0142,-0.0149,-0.0118,-0.0107,-0.0062,-0.0028,-0.0012,0.0034,0.0044,0.0039,0.0087,0.0088,0.0049,0.0014,0.0071,0.0082,0.0082,0.0082,0.0082,0,0.0007,-0.0013,-0.0064,-0.0106,-0.0116,-0.0153,-0.0192,-0.022,-0.023,-0.0215,-0.0191,-0.0153,-0.0122,-0.0075,-0.0022,-0.0015,0.0029,0.0058,0.0059,0.0015,0.0033,0.0108,0.0082,0.0082,0.0082,0.0082,0.0082,0,-0.0011,-0.0058,-0.0097,-0.0113,-0.0161,-0.0188,-0.021,-0.0236,-0.0251,-0.0237,-0.0225,-0.0191,-0.0152,-0.0102,-0.0029,-0.0009,0.0021,0.0049,0.0029,0.0026,0.0084,0.0086,0.0071,0.0071,0.0071,0.0071,0.0071,0,-0.0046,-0.008,-0.0106,-0.0129,-0.0181,-0.0201,-0.0246,-0.0259,-0.0267,-0.0281,-0.0237,-0.023,-0.0147,-0.0117,-0.0053,-0.0022,0.0001,0.0011,0.0018,0.0074,0.0074,0.0084,0.0086,0.0072,0.0072,0.0071,0.0071,0,-0.0073,-0.0087,-0.0135,-0.0177,-0.0193,-0.0225,-0.0265,-0.0287,-0.0283,-0.0295,-0.028,-0.0249,-0.021,-0.0159,-0.0087,-0.006,-0.0023,-0.0018,0.0022,0.0034,-0.0015,-0.0015,-0.0041,-0.0043,-0.0045,-0.0046,-0.0048,0,-0.0096,-0.0117,-0.0163,-0.0188,-0.0211,-0.0251,-0.0278,-0.0291,-0.0299,-0.031,-0.0308,-0.0287,-0.0261,-0.0209,-0.0157,-0.0092,-0.0075,-0.0056,-0.0026,-0.004,-0.003,-0.0027,-0.0025,-0.005,-0.0051,-0.0051,-0.0051,0,-0.0136,-0.0145,-0.0175,-0.0214,-0.0248,-0.0286,-0.0311,-0.0315,-0.0322,-0.033,-0.0321,-0.0302,-0.0284,-0.023,-0.0194,-0.014,-0.007,-0.0073,-0.0068,-0.004,-0.0051,-0.0038,-0.0034,-0.0057,-0.0056,-0.0056,-0.0055,0,-0.016,-0.0179,-0.0201,-0.0236,-0.0278,-0.0298,-0.0316,-0.0321,-0.0328,-0.0325,-0.033,-0.0309,-0.0295,-0.0258,-0.0222,-0.0189,-0.0167,-0.0131,-0.0123,-0.0116,-0.0146,-0.0171,-0.0223,0,0,0,0,0,-0.0178,-0.0185,-0.022,-0.0245,-0.0283,-0.0302,-0.0329,-0.0334,-0.0339,-0.0331,-0.0325,-0.0309,-0.0281,-0.0269,-0.0242,-0.0253,-0.0165,-0.0223,-0.0119,-0.0089,-0.0082,-0.0111,0,0,0,0,0,0,-0.0189,-0.0214,-0.0214,-0.024,-0.0256,-0.029,-0.0307,-0.0313,-0.0298,-0.0305,-0.0282,-0.0297,-0.026,-0.0284,-0.0235,-0.0232,-0.0163,-0.0215,-0.0214,-0.0093,-0.0087,-0.0081,-0.0108,0,0,0,0,0]}]]